Left ArrowRight Arrow

45.66244, -110.56104

Hourly Observations for May 17, 2024

Temp ( °F °C ) Dew Point ( °F °C ) Humidity (%) Winds ( mph kmh ) Pressure ( in mb ) Visibility ( mi km ) Precip ( " mm )
1:53 am 01:53 Clear 56 13.3 33 0.6 42 42 WSW 14 22 29.52 1000 10 16 0.00 0.00
2:53 am 02:53 Clear 54 12.2 33 0.6 45 45 WSW 12 19 29.52 1000 10 16 0.00 0.00
3:53 am 03:53 Clear 51 10.6 34 1.1 52 52 WNW 10 17 29.52 1000 10 16 0.00 0.00
4:53 am 04:53 Clear 56 13.3 34 1.1 43 43 W 13 20 29.50 999 10 16 0.00 0.00
5:53 am 05:53 Sunny 50 10 34 1.1 54 54 NW 14 22 29.50 999 10 16 0.00 0.00
6:53 am 06:53 Sunny 59 15 33 0.6 37 37 WSW 22 35 29.47 998 10 16 0.00 0.00
7:53 am 07:53 Mostly Sunny 62 16.7 35 1.7 36 36 W 16 26 29.46 998 10 16 0.00 0.00
8:53 am 08:53 Cloudy 57 13.9 38 3.3 49 49 NNW 8 13 29.50 999 10 16 0.00 0.00
9:53 am 09:53 Cloudy 63 17.2 35 1.7 35 35 W 16 26 29.48 998 10 16 0.00 0.00
10:53 am 10:53 Mostly Sunny 67 19.4 31 -0.6 26 26 W 35 56 29.47 998 10 16 0.00 0.00
11:53 am 11:53 Sunny 69 20.6 29 -1.7 22 22 WNW 31 50 29.47 998 10 16 0.00 0.00
12:53 pm 12:53 Sunny 69 20.6 27 -2.8 20 20 W 33 54 29.46 998 10 16 0.00 0.00
1:53 pm 13:53 Sunny 70 21.1 27 -2.8 20 20 W 35 56 29.44 997 10 16 0.00 0.00
2:53 pm 14:53 Sunny 70 21.1 32 0 24 24 WNW 29 46 29.47 998 10 16 0.00 0.00
3:53 pm 15:53 Partly Cloudy with Light Rain 62 16.7 32 0 32 32 WNW 24 39 29.52 1000 10 16 0.01 0.13
4:53 pm 16:53 Cloudy with Light Rain 58 14.4 30 -1.1 34 34 NNW 24 39 29.56 1001 10 16 0.01 0.13
5:53 pm 17:53 Mostly Cloudy 54 12.2 25 -3.9 32 32 NNW 36 57 29.65 1004 10 16 0.01 0.13
6:53 pm 18:53 Cloudy 51 10.6 26 -3.3 37 37 NW 18 30 29.73 1007 10 16 0.00 0.00
7:53 pm 19:53 Cloudy 50 10 16 -8.9 25 25 W 23 37 29.78 1008 10 16 0.00 0.00
8:53 pm 20:53 Mostly Clear 48 8.9 14 -10 25 25 W 32 52 29.81 1010 10 16 0.00 0.00
9:53 pm 21:53 Mostly Clear 46 7.8 15 -9.4 28 28 W 30 48 29.87 1011 10 16 0.00 0.00
10:53 pm 22:53 Clear 42 5.6 17 -8.3 36 36 WSW 21 33 29.88 1012 10 16 0.00 0.00
11:53 pm 23:53 Clear 39 3.9 19 -7.2 44 44 WNW 15 24 29.91 1013 10 16 0.00 0.00

Powered by Vaisala Xweather